DW0414 Weather Reports


Display with metric or nautical units.
time (UTC)temp
F
wind
direction
speed
MPH
gust
MPH
rain 1hr
in
rain 24hr
in
rain mn
in
humidity
%
barometer
mb
20260906230058 76 134 6.0 15.0 0.00 0.00 0.00 26 1014.7
20260906224601 75 146 4.0 16.0 0.00 0.00 0.00 25 1014.7
20260906223107 76 285 6.0 17.0 0.00 0.00 0.00 25 1014.9
20260906221605 75 288 8.0 17.0 0.00 0.00 0.00 24 1014.7
20260906220104 76 246 6.0 14.0 0.00 0.00 0.00 24 1014.8
20260906214604 76 205 6.0 11.0 0.00 0.00 0.00 24 1015.3
20260906213058 77 205 4.0 13.0 0.00 0.00 0.00 23 1015.4
20260906211558 77 210 2.0 16.0 0.00 0.00 0.00 24 1015.4
20260906204602 76 222 1.0 8.0 0.00 0.00 0.00 23 1015.5
20260906203054 76 230 5.0 13.0 0.00 0.00 0.00 25 1015.5
20260906201554 75 257 3.0 14.0 0.00 0.00 0.00 26 1015.9
20260906194606 74 177 5.0 12.0 0.00 0.00 0.00 27 1016.4
20260906193056 74 319 8.0 18.0 0.00 0.00 0.00 26 1016.5
20260906191554 74 255 5.0 14.0 0.00 0.00 0.00 27 1016.8
20260906190058 74 295 6.0 13.0 0.00 0.00 0.00 26 1017.1
20260906184556 73 234 7.0 17.0 0.00 0.00 0.00 27 1017.4
20260906183103 72 248 7.0 14.0 0.00 0.00 0.00 28 1017.5
20260906181604 72 201 4.0 14.0 0.00 0.00 0.00 29 1017.7
20260906180121 71 257 7.0 15.0 0.00 0.00 0.00 28 1018.0
20260906174614 71 273 4.0 9.0 0.00 0.00 0.00 30 1018.3
20260906173054 71 248 3.0 10.0 0.00 0.00 0.00 30 1018.5
20260906171612 69 212 1.0 3.0 0.00 0.00 0.00 37 1018.7
20260906164555 66 129 0.0 2.0 0.00 0.00 0.00 42 1018.7
20260906163058 63 210 0.0 3.0 0.00 0.00 0.00 46 1019.0
20260906161621 62 46 0.0 2.0 0.00 0.00 0.00 49 1019.2
20260906154559 58 238 2.0 4.0 0.00 0.00 0.00 54 1019.5
20260906153112 57 176 0.0 1.0 0.00 0.00 0.00 56 1019.5
20260906151557 56 0 0.0 2.0 0.00 0.00 0.00 56 1019.4
20260906150107 53 0 0.0 1.0 0.00 0.00 0.00 59 1019.5
20260906144554 49 0 0.0 1.0 0.00 0.00 0.00 67 1019.7
20260906143059 44 0 0.0 1.0 0.00 0.00 0.00 72 1019.8
20260906141617 41 0 0.0 1.0 0.00 0.00 0.00 78 1019.7
20260906140055 38 23 0.0 1.0 0.00 0.00 0.00 81 1019.9
20260906134559 34 0 0.0 1.0 0.00 0.00 0.00 87 1019.9
20260906133105 33 199 0.0 1.0 0.00 0.00 0.00 87 1019.9
20260906131606 33 0 0.0 0.0 0.00 0.00 0.00 87 1019.8
20260906130059 33 0 0.0 0.0 0.00 0.00 0.00 87 1019.8
20260906124606 34 0 0.0 4.0 0.00 0.00 0.00 86 1019.8
20260906123107 35 0 0.0 4.0 0.00 0.00 0.00 85 1019.7
20260906121614 35 72 0.0 3.0 0.00 0.00 0.00 85 1019.4
20260906120108 35 0 1.0 1.0 0.00 0.00 0.00 84 1019.4
20260906114558 36 15 0.0 1.0 0.00 0.00 0.00 83 1019.7
20260906113055 36 0 0.0 1.0 0.00 0.00 0.00 82 1019.4
20260906111553 37 0 0.0 1.0 0.00 0.00 0.00 82 1019.4
20260906110057 38 0 0.0 0.0 0.00 0.00 0.00 82 1019.2
20260906104557 37 0 0.0 0.0 0.00 0.00 0.00 81 1019.2
20260906103054 37 0 0.0 0.0 0.00 0.00 0.00 81 1018.8
20260906101600 37 0 0.0 0.0 0.00 0.00 0.00 80 1018.7
20260906100058 38 0 0.0 0.0 0.00 0.00 0.00 79 1018.6
20260906094603 38 0 0.0 0.0 0.00 0.00 0.00 78 1018.8
20260906093056 39 0 0.0 0.0 0.00 0.00 0.00 78 1018.7
20260906091554 39 0 0.0 1.0 0.00 0.00 0.00 76 1018.7
20260906090101 40 0 0.0 1.0 0.00 0.00 0.00 74 1018.7
20260906084558 41 0 0.0 1.0 0.00 0.00 0.00 74 1018.7
20260906083103 41 0 0.0 1.0 0.00 0.00 0.00 73 1018.8
20260906081554 41 26 0.0 2.0 0.00 0.00 0.00 72 1019.0
20260906080059 43 348 1.0 2.0 0.00 0.00 0.00 69 1019.0
20260906074556 44 82 1.0 3.0 0.00 0.00 0.00 68 1019.2
20260906073100 44 318 0.0 5.0 0.00 0.00 0.00 67 1019.1
20260906071555 44 0 0.0 2.0 0.00 0.00 0.00 67 1019.2
20260906070057 44 75 0.0 3.0 0.00 0.00 0.00 67 1019.4
20260906064554 44 0 0.0 1.0 0.00 0.00 0.00 67 1019.4
20260906063057 44 273 0.0 1.0 0.00 0.00 0.00 67 1019.4
20260906061556 45 0 0.0 1.0 0.00 0.00 0.00 64 1019.4
20260906060132 45 0 0.0 1.0 0.00 0.00 0.00 66 1019.6
20260906054603 45 75 0.0 4.0 0.00 0.00 0.00 64 1019.7
20260906053057 46 305 2.0 3.0 0.00 0.00 0.00 63 1019.8
20260906051558 45 0 0.0 1.0 0.00 0.00 0.00 64 1019.7
20260906050055 45 0 0.0 2.0 0.00 0.00 0.00 63 1019.4
20260906044559 46 77 1.0 2.0 0.00 0.00 0.00 62 1019.4
20260906043054 47 283 0.0 2.0 0.00 0.00 0.00 59 1019.6
20260906041553 48 0 0.0 1.0 0.00 0.00 0.00 59 1019.4
20260906040105 48 290 0.0 1.0 0.00 0.00 0.00 57 1019.3
20260906034604 49 71 0.0 1.0 0.00 0.00 0.00 55 1019.1
20260906033055 51 0 0.0 1.0 0.00 0.00 0.00 52 1018.9
20260906031557 52 0 0.0 1.0 0.00 0.00 0.00 52 1018.6
20260906030056 53 14 0.0 2.0 0.00 0.00 0.00 48 1018.4
20260906024557 55 39 0.0 1.0 0.00 0.00 0.00 48 1018.2
20260906023052 57 37 0.0 2.0 0.00 0.00 0.00 46 1017.7
20260906021602 59 0 0.0 2.0 0.00 0.00 0.00 42 1017.7
20260906020056 63 0 0.0 1.0 0.00 0.00 0.00 38 1017.5
20260906014554 68 25 0.0 1.0 0.00 0.00 0.00 32 1017.5
20260906013058 74 0 1.0 1.0 0.00 0.00 0.00 27 1017.6
20260906011555 75 0 0.0 3.0 0.00 0.00 0.00 26 1017.6
20260906010137 75 241 2.0 11.0 0.00 0.00 0.00 25 1017.4
20260906004616 76 145 4.0 11.0 0.00 0.00 0.00 24 1017.5
20260906003058 76 224 4.0 13.0 0.00 0.00 0.00 22 1017.3
20260906001604 77 237 5.0 12.0 0.00 0.00 0.00 22 1017.3
20260906000100 77 236 2.0 16.0 0.00 0.00 0.00 24 1017.3
20260905234604 77 154 4.0 17.0 0.00 0.00 0.00 23 1017.2
20260905233059 77 184 6.0 13.0 0.00 0.00 0.00 23 1017.1
20260905231556 77 243 6.0 16.0 0.00 0.00 0.00 23 1017.1